{"data":{"norad_id":57090,"epoch":"2026-09-20T14:32:00.422016Z","epoch_age_seconds":111810,"freshness":"FRESH","line1":"1 57090U 23088AU  26263.60556044 -.00000195  00000+0  24480-5 0  9999","line2":"2 57090  43.0047  75.0446 0001718 270.0064  90.0591 15.27573110180312","mean_motion":15.2757311,"eccentricity":0.0001718,"inclination_deg":43.0047,"raan_deg":75.0446,"arg_perigee_deg":270.0064,"mean_anomaly_deg":90.0591,"bstar":2.448e-6,"rev_number":18031,"period_min":94.267173896508,"perigee_km":481.89097194012,"apogee_km":484.24848257161,"semimajor_km":6861.2067272559,"source":"CELESTRAK","updated_at":"2026-09-21T09:00:33.556722Z"}}